Location: Zlin
(49.2330°N, 17.6670°E)
Time: 10:11:03
(UTC+02:00)

ISS - Visible Passes

Search period start: 15 May 2021 00:00
Search period end: 25 May 2021 00:00
Orbit: 417 x 422 km, 51.6° (Epoch: 15 May)

Date Brightness Start Highest point End Pass type
(mag) Time Alt. Az. Time Alt. Az. Time Alt. Az.
15 May -3.2 00:28:49 10° W 00:32:09 58° N 00:35:30 10° ENE visible
15 May -3.5 02:05:49 10° WNW 02:09:12 68° NNE 02:12:34 10° E visible
15 May -3.2 03:42:45 10° W 03:45:55 37° SSW 03:49:03 10° SE visible
15 May -3.4 22:04:44 10° SW 22:07:55 40° SSE 22:11:06 10° ENE visible
15 May -3.4 23:41:17 10° W 23:44:39 66° NNW 23:48:01 10° ENE visible
16 May -3.2 01:18:21 10° WNW 01:21:42 59° N 01:25:03 10° E visible
16 May -3.7 02:55:14 10° WNW 02:58:32 53° SSW 03:01:50 10° SE visible
16 May -2.8 21:17:39 10° SSW 21:20:34 27° SE 21:23:30 10° E visible
16 May -3.7 22:53:47 10° WSW 22:57:10 80° NNW 23:00:33 10° ENE visible
17 May -3.1 00:30:51 10° WNW 00:34:11 55° N 00:37:31 10° E visible
17 May -3.9 02:07:45 10° WNW 02:11:07 75° SSW 02:14:29 10° ESE visible
17 May -2.2 03:45:12 10° W 03:47:30 17° SW 03:49:49 10° S visible
17 May -3.9 22:06:20 10° WSW 22:09:42 80° SSE 22:13:04 10° ENE visible
17 May -3.0 23:43:20 10° W 23:46:40 54° N 23:49:59 10° ENE visible
18 May -3.2 01:20:17 10° WNW 01:22:52 50° WNW 01:22:52 50° WNW visible
18 May -3.7 21:18:57 10° SW 21:22:16 58° SSE 21:25:35 10° ENE visible
18 May -3.1 22:55:47 10° W 22:59:08 58° N 23:02:28 10° ENE visible
19 May -3.5 00:32:49 10° WNW 00:36:10 69° NNE 00:36:27 64° NE visible
19 May -3.4 22:08:15 10° W 22:11:37 66° N 22:14:58 10° ENE visible
19 May -3.2 23:45:19 10° WNW 23:48:39 59° N 23:50:16 27° E visible
20 May -1.6 01:22:11 10° WNW 01:23:11 18° W 01:23:11 18° W visible
20 May -3.6 21:20:44 10° WSW 21:24:06 80° NNW 21:27:29 10° ENE visible
20 May -3.1 22:57:48 10° WNW 23:01:07 55° N 23:04:09 12° E visible
21 May -3.0 00:34:41 10° WNW 00:37:05 42° W 00:37:05 42° W visible
21 May -3.0 22:10:16 10° W 22:13:35 54° N 22:16:54 10° ENE visible
21 May -3.8 23:47:12 10° WNW 23:50:36 84° NNE 23:51:02 65° E visible
22 May -3.1 21:22:43 10° W 21:26:02 57° N 21:29:22 10° ENE visible
22 May -3.5 22:59:43 10° WNW 23:03:05 69° NNE 23:05:00 23° E visible
23 May -1.8 00:36:38 10° W 00:37:56 20° W 00:37:56 20° W visible
23 May -3.2 22:12:13 10° WNW 22:15:33 59° N 22:18:53 10° E visible
23 May -3.3 23:49:05 10° WNW 23:51:57 48° WSW 23:51:57 48° WSW visible
24 May -3.0 21:24:40 10° WNW 21:28:00 55° N 21:31:20 10° E visible
24 May -3.9 23:01:34 10° WNW 23:04:56 74° SSW 23:05:58 41° SE visible
